Temperature
0 1 1 1 1 0 0 1 1 1 1 2 1 1 2 2 2 2 2 2 2 2 2 2 2 2 2 2 2 1 1 1 1 1 1 1 1 1 1 2 2 2 2 2
-0 0 0 1 1 0 0 1 0 1 1 1 1 1 1 1 1 2 2 2 2 2 2 2 2 2 2 1 1 1 1 1 1 1 1 1 1 1 1 1 1 1 1 1
0 -0 0 1 0 -0 -0 -1 -0 1 2 1 0 0 1 1 1 2 2 2 2 2 2 2 2 2 1 1 1 1 0 0 0 0 0 0 0 0 0 0 0 1 1 0
-1 -0 1 2 0 -0 -0 -0 -1 0 0 0 1 2 2 2 2 2 2 2 2 2 2 2 1 1 1 1 0 0 -0 -0 -0 -0 -0 -1 -1 -1 -1 -0 -0 0 0 -0
-2 -1 0 1 0 -1 -1 0 -0 -1 -0 0 1 0 1 3 3 2 2 2 2 1 1 1 1 0 0 0 -0 -0 -0 -0 -1 -1 -1 -1 -1 -1 -1 -1 -1 -1 -1 -1
-2 -1 0 2 0 -0 0 1 0 -1 -1 -0 -1 -0 1 3 3 2 2 1 1 1 1 1 0 0 -0 -0 -0 -1 -1 -1 -1 -1 -1 -1 -2 -2 -2 -2 -1 -1 -1 -1
-2 -1 -0 0 -1 -0 1 2 1 1 1 -0 -1 1 2 2 2 2 1 1 1 1 0 0 -0 -0 -0 -0 -1 -1 -1 -1 -1 -2 -2 -2 -2 -2 -2 -2 -2 -2 -2 -2
-2 -1 0 -0 -1 -0 1 2 2 2 2 1 1 2 2 2 2 1 1 1 0 0 -0 -0 -1 -1 -1 -1 -1 -1 -2 -2 -2 -2 -2 -2 -2 -3 -3 -3 -3 -3 -3 -2
-1 0 0 0 1 2 2 2 2 2 2 1 1 1 2 1 1 1 0 0 -0 -0 -1 -1 -1 -1 -1 -1 -2 -2 -2 -2 -2 -3 -3 -3 -3 -3 -3 -3 -3 -3 -3 -3
-3 -2 -1 1 1 2 2 2 2 2 1 1 1 1 1 1 1 0 -0 -0 -1 -1 -1 -1 -1 -2 -2 -2 -2 -2 -2 -3 -3 -3 -3 -3 -3 -3 -4 -4 -4 -4 -4 -4
-3 -2 -2 1 2 2 2 2 2 2 1 1 1 1 1 0 0 -0 -1 -1 -1 -1 -1 -1 -2 -2 -2 -2 -2 -3 -3 -3 -3 -3 -3 -3 -4 -4 -4 -4 -4 -4 -4 -5
-1 -0 -1 1 3 2 2 2 2 1 1 1 1 0 0 -0 -0 -1 -1 -1 -2 -2 -2 -2 -2 -2 -2 -3 -3 -3 -3 -3 -3 -4 -4 -4 -4 -4 -4 -4 -4 -4 -5 -5
1 2 1 2 2 2 2 1 1 1 1 0 0 -0 -0 -1 -1 -1 -1 -2 -2 -2 -2 -2 -2 -3 -3 -3 -3 -3 -3 -4 -4 -4 -4 -4 -4 -4 -4 -4 -4 -4 -5 -5
1 1 0 1 1 1 1 1 1 0 0 0 -0 -0 -1 -1 -1 -2 -2 -2 -2 -2 -2 -2 -3 -3 -3 -3 -3 -4 -4 -4 -4 -4 -4 -5 -5 -5 -5 -5 -5 -5 -5 -5
1 1 0 1 1 1 0 0 -0 -0 -0 -0 -1 -1 -1 -1 -2 -2 -2 -2 -2 -2 -3 -3 -3 -3 -3 -4 -4 -4 -4 -4 -5 -5 -5 -5 -5 -5 -5 -5 -5 -5 -5 -5
1 0 -0 -0 0 0 -0 -0 -1 -1 -1 -1 -1 -1 -2 -2 -2 -2 -2 -2 -3 -3 -3 -3 -3 -3 -4 -4 -4 -4 -5 -5 -5 -5 -5 -5 -5 -6 -6 -6 -6 -6 -6 -6
-0 -1 -1 -1 -0 -0 -1 -1 -1 -1 -1 -1 -1 -1 -2 -2 -2 -2 -3 -3 -3 -3 -3 -3 -3 -4 -4 -4 -4 -5 -5 -5 -5 -5 -5 -5 -6 -6 -6 -6 -6 -6 -6 -6
0 0 0 -0 -0 -1 -1 -1 -1 -1 -1 -1 -2 -2 -2 -2 -2 -3 -3 -3 -3 -3 -3 -3 -4 -4 -4 -4 -5 -5 -5 -5 -5 -5 -6 -6 -6 -6 -6 -7 -7 -7 -7 -7
-0 -0 -0 -0 -1 -1 -1 -1 -1 -1 -2 -2 -2 -2 -2 -3 -3 -3 -3 -3 -3 -3 -3 -4 -4 -4 -4 -4 -5 -5 -5 -5 -5 -6 -6 -6 -6 -6 -7 -7 -7 -7 -7 -7
-1 -1 -1 -1 -1 -1 -1 -2 -2 -2 -2 -2 -2 -3 -3 -3 -3 -3 -3 -4 -4 -4 -4 -4 -4 -4 -4 -5 -5 -5 -5 -5 -6 -6 -6 -6 -6 -7 -7 -7 -7 -7 -7 -7
-1 -1 -1 -1 -1 -2 -2 -2 -2 -2 -2 -3 -3 -3 -3 -3 -3 -3 -4 -4 -4 -4 -4 -4 -4 -5 -5 -5 -5 -5 -5 -6 -6 -6 -6 -7 -7 -7 -7 -7 -7 -7 -7 -7
-1 -1 -1 -2 -2 -2 -2 -2 -2 -2 -2 -3 -3 -3 -3 -3 -3 -4 -4 -4 -4 -4 -4 -4 -5 -5 -5 -5 -5 -5 -6 -6 -6 -6 -7 -7 -7 -7 -7 -7 -8 -8 -8 -8
-2 -2 -2 -2 -2 -2 -2 -2 -3 -3 -3 -3 -3 -3 -3 -3 -4 -4 -4 -4 -4 -5 -5 -5 -5 -5 -5 -6 -6 -6 -6 -6 -6 -7 -7 -7 -7 -7 -8 -8 -8 -8 -8 -8
-2 -2 -2 -2 -2 -2 -3 -3 -3 -3 -3 -3 -3 -4 -4 -4 -4 -4 -4 -5 -5 -5 -5 -5 -5 -5 -6 -6 -6 -6 -6 -6 -7 -7 -7 -7 -7 -8 -8 -8 -8 -8 -8 -8
-2 -2 -2 -2 -3 -3 -3 -3 -3 -3 -3 -4 -4 -4 -4 -4 -4 -5 -5 -5 -5 -5 -5 -5 -6 -6 -6 -6 -6 -6 -6 -7 -7 -7 -7 -7 -8 -8 -8 -8 -8 -8 -8 -8
-2 -3 -3 -3 -3 -3 -3 -3 -4 -4 -4 -4 -4 -4 -5 -5 -5 -5 -5 -5 -5 -5 -6 -6 -6 -6 -6 -7 -7 -7 -7 -7 -7 -7 -7 -8 -8 -8 -8 -8 -8 -8 -8 -8
-3 -3 -3 -3 -3 -4 -4 -4 -4 -4 -4 -4 -4 -5 -5 -5 -5 -5 -5 -6 -6 -6 -6 -6 -6 -7 -7 -7 -7 -7 -7 -7 -7 -7 -8 -8 -8 -8 -8 -8 -8 -8 -8 -8
Wind_Speed
5 4 3 5 7 7 9 9 9 9 11 12 9 8 7 6 5 4 4 3 3 3 3 3 2 2 2 2 1 0 0 1 2 2 2 2 2 3 3 3 3 2 3 3
4 4 4 7 9 10 11 10 11 11 14 11 8 5 6 7 6 6 6 6 5 4 4 4 3 3 2 2 2 1 1 2 2 2 2 2 3 3 3 3 3 3 3 3
4 3 3 8 10 12 8 9 9 13 14 7 7 8 8 7 7 7 7 6 6 5 5 5 4 4 3 3 2 2 2 2 2 2 3 3 3 3 3 4 3 3 3 3
1 1 7 8 3 7 9 10 11 10 9 8 10 8 7 7 7 7 7 6 6 5 5 4 3 3 2 2 2 2 3 3 3 3 3 3 3 4 4 4 4 4 4 4
3 3 8 7 4 6 7 8 10 13 12 8 4 3 6 7 7 8 7 6 5 5 4 3 3 3 2 2 2 3 3 4 3 3 4 4 4 4 4 4 4 4 4 4
4 4 7 7 3 4 3 6 6 9 10 6 3 3 7 4 5 5 4 4 4 4 3 3 3 2 3 3 3 4 4 4 4 3 4 4 4 4 4 4 5 5 5 4
6 6 9 6 3 5 4 7 3 6 7 7 8 7 5 3 3 4 4 4 3 3 3 4 3 3 3 4 5 5 4 4 4 4 4 5 4 4 4 4 5 5 5 5
6 6 9 5 7 8 8 3 3 4 5 6 7 5 4 4 4 4 3 3 3 3 4 3 3 4 4 5 5 3 3 3 4 4 4 3 3 4 4 4 5 5 5 5
9 9 4 6 8 6 3 4 4 4 4 4 5 5 5 4 4 4 4 4 3 3 3 3 3 4 5 5 3 3 3 4 4 4 4 4 4 4 4 4 4 4 4 4
6 9 7 8 7 5 5 5 5 5 4 5 6 6 5 5 4 4 4 4 3 3 4 4 4 4 5 4 3 3 4 4 4 4 4 3 3 4 4 4 4 4 4 5
7 8 7 7 9 8 6 6 5 5 5 6 6 6 5 5 5 4 4 3 3 4 5 5 4 4 4 4 3 3 4 4 4 4 4 4 4 4 5 5 5 5 5 5
10 8 7 7 6 6 7 8 7 6 5 5 6 6 5 5 4 4 4 3 3 4 5 5 4 4 4 4 4 4 4 4 4 3 3 3 4 5 7 7 8 9 9 8
9 5 6 7 5 5 7 7 7 6 6 6 5 5 5 4 4 3 4 4 5 5 5 4 4 5 4 4 4 5 5 4 4 4 4 4 4 4 5 5 6 7 8 9
7 4 5 6 6 6 6 5 4 4 4 5 4 3 3 3 3 4 5 5 4 4 4 4 4 5 5 4 4 5 5 5 5 4 4 4 4 4 4 4 5 4 5 8
8 8 8 5 4 4 3 3 3 4 4 3 3 4 4 4 5 5 4 3 2 3 4 4 4 5 4 3 4 5 4 4 4 4 4 4 4 4 3 4 4 4 4 5
5 5 6 6 6 5 4 4 5 6 5 5 4 4 4 4 4 3 2 2 2 4 4 4 5 5 3 4 4 4 4 6 5 4 4 4 4 3 3 4 4 4 4 4
5 6 6 6 7 7 7 7 7 6 5 5 5 4 3 2 2 3 3 3 4 4 4 4 5 4 4 4 4 3 3 5 6 4 3 4 4 4 4 4 4 4 5 6
9 9 8 7 7 7 7 6 5 5 5 5 3 3 3 4 4 4 3 2 2 3 4 4 4 4 4 4 3 3 3 3 3 3 3 3 4 4 4 4 4 5 5 5
7 7 7 7 7 7 6 5 5 4 4 3 4 4 4 4 3 3 2 2 3 4 4 4 4 3 3 4 3 3 3 3 3 3 3 5 4 3 3 4 4 4 4 4
5 5 5 5 4 5 4 4 3 3 3 3 3 3 3 3 3 3 3 3 4 4 3 3 3 2 3 3 3 2 3 3 3 3 3 3 3 3 3 4 4 4 4 4
5 4 4 4 3 3 4 4 4 3 3 3 4 4 4 3 3 2 2 3 4 3 3 4 2 2 2 2 3 2 2 3 3 3 3 3 3 3 3 4 4 4 4 4
3 3 3 3 3 2 2 2 3 3 3 3 3 3 2 2 2 2 3 4 3 3 2 2 2 3 3 2 1 1 2 2 2 2 3 3 3 4 4 4 4 4 4 4
2 2 3 3 3 2 1 1 2 3 3 4 4 3 3 3 3 2 3 3 2 3 2 2 3 3 3 1 1 1 2 2 2 3 3 3 3 3 4 4 4 4 4 4
1 1 2 2 3 3 2 1 1 1 2 2 2 3 2 2 2 2 2 3 3 2 1 3 3 3 2 0 1 1 1 2 2 2 3 3 3 3 3 4 4 4 4 4
1 2 2 2 2 2 2 1 1 1 1 0 1 1 1 2 2 2 1 1 2 1 1 2 3 3 1 1 1 1 2 2 2 2 3 3 3 3 3 3 3 3 3 4
1 1 1 1 1 2 2 2 1 1 1 1 1 1 0 0 1 0 0 0 1 1 1 1 2 2 1 1 1 1 2 3 3 2 2 3 3 3 3 3 4 3 4 4
1 1 1 1 0 1 1 2 2 2 2 2 1 1 0 0 1 0 0 1 1 1 1 1 1 1 1 1 1 2 2 2 2 2 2 3 3 3 3 4 3 3 3 3
Wind_Direction
247 255 223 230 233 214 214 216 220 239 242 257 257 251 253 254 263 267 265 260 250 247 250 258 267 270 262 264 265 252 234 294 288 295 299 306 314 308 302 303 292 285 279 277
266 250 246 261 246 230 233 233 237 255 263 256 254 249 249 247 243 251 257 253 252 248 245 248 251 257 260 261 258 244 245 264 277 290 297 297 299 303 303 301 294 287 282 275
257 277 295 266 233 215 219 216 206 232 246 251 250 243 234 227 226 237 248 245 240 239 238 242 241 238 240 242 242 237 249 265 273 277 283 287 294 302 297 294 288 280 279 275
226 78 243 250 212 198 217 236 223 235 248 238 240 247 241 222 218 237 243 239 236 235 239 240 233 231 231 225 223 236 249 257 261 263 271 280 284 288 291 292 287 278 277 274
172 233 273 283 234 184 201 257 225 230 246 250 254 288 269 228 216 227 232 232 228 227 229 226 223 218 211 225 228 237 247 252 253 253 262 267 272 278 284 287 285 276 274 272
171 202 244 252 221 181 143 277 237 214 231 227 172 241 261 235 214 227 226 223 220 221 221 223 228 202 208 236 245 251 253 255 253 252 256 258 262 270 275 277 281 281 281 274
198 226 259 249 188 140 179 248 248 205 213 198 207 228 251 229 219 218 223 231 223 218 223 228 217 200 224 244 253 257 260 262 261 257 258 257 263 269 273 280 286 280 278 278
179 216 252 203 153 188 221 252 220 219 214 214 233 254 257 239 231 226 230 236 224 224 241 238 211 203 230 247 253 254 253 259 262 263 267 268 260 271 274 275 283 281 279 285
200 219 247 190 204 222 217 234 240 229 232 219 236 250 250 243 238 242 241 240 232 223 244 253 230 210 231 249 248 244 248 257 262 270 270 266 260 267 275 271 271 277 275 279
248 259 253 243 245 246 230 236 247 240 232 218 233 240 242 245 249 251 251 244 231 223 240 254 245 233 230 242 239 230 242 254 258 258 265 264 264 260 259 263 266 271 275 278
251 267 282 261 236 237 243 247 250 247 233 227 224 236 234 241 246 247 253 247 226 226 238 248 251 251 245 234 220 229 243 251 258 256 258 265 263 254 256 250 253 263 264 265
232 226 212 247 243 224 230 240 238 235 245 241 223 227 230 238 242 243 246 242 239 239 243 249 248 253 252 237 219 223 244 250 252 256 258 260 268 277 269 267 277 278 280 278
233 233 226 254 257 230 229 240 237 226 227 238 234 219 218 236 241 238 246 244 241 242 244 246 248 253 252 238 226 226 236 247 251 252 254 261 264 267 283 292 289 289 289 289
231 225 247 242 245 242 236 236 229 228 230 227 227 222 215 228 239 237 244 247 246 246 248 246 248 255 250 235 230 233 240 251 254 250 249 253 257 258 263 277 291 293 298 296
226 217 228 243 251 250 237 214 215 234 232 231 218 216 214 220 235 244 248 246 244 249 251 248 252 260 251 234 233 235 240 249 251 248 246 246 249 252 256 264 273 285 296 298
225 224 228 231 239 241 236 224 225 238 234 231 222 222 223 226 236 244 242 220 227 247 250 248 255 259 247 236 238 240 244 255 254 251 245 244 244 245 251 258 266 274 278 283
196 223 223 232 237 239 237 233 228 232 229 227 225 217 206 206 228 248 257 249 245 250 250 246 254 259 248 239 234 240 244 253 255 250 238 239 240 241 245 250 258 266 270 275
216 221 218 222 230 236 241 236 229 226 227 223 205 191 197 207 227 244 256 264 271 278 267 255 255 255 248 240 235 237 241 242 236 237 238 240 243 240 241 245 252 262 270 277
227 228 227 227 226 225 228 228 228 222 211 194 192 205 216 222 229 238 234 231 248 271 277 267 272 266 254 247 242 232 235 236 241 244 244 254 258 246 242 247 253 258 265 273
230 228 222 225 220 213 216 219 210 206 199 186 189 200 218 230 225 223 223 239 246 251 261 269 269 263 261 258 256 229 222 226 234 243 246 246 250 251 248 251 255 258 262 267
227 223 212 209 214 213 204 195 189 197 198 187 194 207 221 229 217 206 219 262 272 264 265 271 267 264 265 267 260 233 219 221 229 238 245 250 254 258 257 255 257 260 263 263
219 206 202 192 183 200 207 190 186 185 183 193 205 202 205 222 225 233 239 246 264 277 286 276 269 270 278 273 236 229 228 229 235 240 246 250 252 256 260 261 262 264 263 261
215 196 188 185 181 182 172 182 186 181 188 199 204 207 216 223 214 221 263 264 262 271 279 269 274 282 286 276 237 239 238 236 241 246 249 251 252 255 260 263 264 265 265 263
182 172 172 160 142 143 172 216 186 181 192 212 217 212 206 222 255 248 255 271 280 279 280 281 291 298 308 350 270 260 256 252 251 255 256 255 255 257 259 262 265 264 264 266
159 148 143 143 155 186 193 157 115 119 137 224 251 234 219 211 224 250 259 264 277 299 321 301 306 315 345 341 280 270 269 266 262 259 256 262 264 263 263 263 262 264 266 268
151 159 182 199 201 194 180 165 170 188 180 223 288 265 233 210 200 212 288 300 299 329 341 328 324 325 342 322 302 295 288 293 295 285 273 270 267 266 268 270 269 270 272 272
110 117 121 112 173 180 174 173 186 208 205 202 232 232 188 142 119 105 75 39 16 359 345 341 345 346 337 329 320 315 309 300 295 287 282 279 276 273 271 270 273 275 278 277
Height
1485 1484 1484 1483 1483 1485 1485 1483 1483 1477 1476 1467 1466 1466 1465 1465 1465 1465 1466 1466 1466 1466 1466 1466 1466 1466 1466 1466 1466 1466 1466 1465 1465 1465 1465 1464 1464 1464 1463 1463 1463 1463 1463 1462
1485 1482 1482 1480 1477 1479 1478 1478 1477 1474 1469 1462 1461 1462 1462 1462 1462 1462 1462 1463 1463 1463 1463 1463 1463 1463 1463 1463 1463 1463 1463 1463 1463 1462 1462 1461 1461 1460 1459 1459 1459 1459 1458 1458
1483 1483 1480 1476 1469 1471 1471 1469 1469 1467 1460 1458 1458 1457 1457 1457 1458 1458 1458 1459 1459 1459 1460 1460 1460 1461 1461 1461 1460 1460 1460 1460 1459 1459 1458 1458 1457 1457 1456 1455 1455 1454 1454 1453
1485 1483 1480 1461 1460 1461 1462 1460 1460 1457 1454 1453 1452 1452 1452 1453 1454 1454 1454 1454 1455 1456 1456 1457 1457 1457 1457 1457 1457 1457 1457 1456 1456 1455 1454 1454 1453 1452 1452 1451 1450 1449 1449 1448
1486 1484 1471 1460 1457 1459 1460 1455 1451 1451 1449 1450 1450 1450 1449 1449 1450 1450 1450 1451 1452 1452 1453 1453 1453 1454 1454 1454 1454 1453 1453 1452 1452 1451 1450 1450 1449 1448 1447 1446 1446 1445 1444 1443
1483 1480 1471 1455 1452 1452 1455 1453 1444 1444 1445 1446 1448 1451 1446 1445 1446 1447 1447 1448 1448 1449 1449 1449 1450 1450 1450 1450 1449 1449 1449 1448 1448 1447 1446 1445 1445 1444 1443 1442 1441 1440 1440 1439
1478 1477 1462 1451 1450 1452 1457 1448 1440 1439 1440 1442 1443 1443 1441 1441 1442 1443 1444 1445 1445 1445 1445 1445 1446 1446 1445 1445 1445 1445 1444 1444 1443 1442 1442 1441 1440 1440 1439 1438 1437 1436 1435 1435
1473 1472 1458 1445 1447 1448 1442 1438 1437 1437 1437 1438 1438 1438 1438 1438 1439 1439 1440 1441 1441 1441 1441 1441 1441 1441 1441 1441 1441 1440 1440 1439 1439 1438 1437 1437 1436 1435 1435 1434 1433 1432 1431 1430
1455 1448 1440 1439 1437 1436 1437 1436 1435 1435 1435 1435 1435 1435 1435 1435 1435 1436 1436 1436 1437 1436 1436 1437 1437 1437 1437 1437 1437 1436 1436 1435 1435 1434 1434 1433 1432 1431 1430 1429 1428 1427 1426 1426
1449 1440 1436 1435 1434 1434 1434 1433 1433 1433 1433 1433 1432 1432 1432 1432 1432 1432 1432 1432 1432 1432 1432 1432 1433 1433 1433 1432 1432 1432 1431 1431 1430 1430 1429 1429 1428 1427 1426 1425 1424 1423 1422 1422
1443 1435 1432 1429 1429 1429 1430 1430 1430 1429 1429 1429 1429 1428 1428 1428 1428 1428 1428 1428 1428 1428 1428 1428 1428 1428 1428 1428 1428 1427 1427 1427 1426 1425 1425 1424 1423 1423 1422 1421 1420 1419 1418 1418
1431 1426 1427 1425 1424 1425 1425 1425 1425 1425 1425 1425 1425 1425 1425 1424 1424 1424 1424 1424 1424 1424 1424 1424 1424 1424 1424 1424 1424 1423 1423 1422 1422 1421 1420 1420 1419 1418 1417 1417 1416 1416 1415 1414
1421 1420 1421 1421 1421 1421 1421 1421 1421 1421 1421 1421 1421 1421 1421 1420 1420 1420 1420 1420 1420 1420 1420 1420 1420 1420 1420 1420 1420 1419 1418 1418 1417 1417 1416 1415 1414 1413 1413 1413 1412 1411 1411 1410
1417 1417 1416 1416 1416 1417 1416 1416 1416 1416 1417 1417 1417 1417 1417 1417 1417 1417 1416 1416 1416 1416 1416 1416 1416 1416 1416 1416 1415 1415 1414 1414 1413 1412 1411 1411 1410 1409 1408 1407 1407 1406 1406 1405
1411 1412 1412 1411 1411 1412 1412 1412 1412 1412 1412 1412 1413 1413 1413 1413 1412 1413 1413 1413 1413 1412 1412 1412 1412 1412 1412 1411 1411 1410 1410 1409 1408 1407 1407 1406 1405 1404 1404 1403 1402 1402 1401 1401
1405 1406 1406 1406 1406 1407 1407 1407 1407 1407 1408 1408 1408 1408 1409 1409 1409 1409 1409 1409 1409 1408 1408 1408 1408 1408 1408 1407 1406 1406 1405 1404 1403 1403 1402 1401 1400 1400 1399 1399 1398 1398 1397 1397
1401 1400 1401 1401 1401 1402 1402 1403 1403 1403 1403 1404 1404 1404 1405 1405 1405 1405 1405 1406 1406 1405 1405 1405 1404 1404 1403 1403 1402 1401 1400 1399 1399 1398 1397 1397 1396 1396 1395 1395 1394 1394 1393 1393
1395 1395 1396 1396 1396 1397 1397 1398 1399 1399 1399 1400 1401 1401 1401 1401 1401 1402 1402 1402 1402 1402 1402 1401 1401 1400 1399 1398 1398 1397 1396 1395 1395 1394 1393 1392 1392 1391 1391 1391 1390 1390 1390 1390
1390 1390 1391 1392 1392 1392 1393 1394 1394 1395 1396 1396 1397 1397 1398 1398 1399 1399 1399 1399 1398 1398 1398 1398 1397 1396 1395 1395 1394 1393 1392 1391 1391 1390 1389 1389 1388 1388 1387 1387 1387 1386 1386 1386
1385 1385 1386 1386 1387 1388 1389 1390 1391 1392 1392 1393 1393 1394 1395 1395 1396 1396 1396 1396 1395 1395 1395 1395 1394 1393 1392 1391 1390 1389 1388 1388 1387 1387 1386 1385 1385 1384 1384 1383 1383 1383 1382 1382
1381 1381 1382 1382 1383 1385 1386 1387 1388 1388 1389 1390 1391 1391 1392 1392 1393 1393 1393 1392 1393 1393 1392 1391 1390 1390 1389 1388 1387 1386 1385 1385 1384 1383 1383 1382 1382 1381 1380 1380 1379 1379 1378 1378
1378 1378 1379 1380 1381 1382 1383 1385 1386 1386 1387 1388 1388 1389 1389 1389 1390 1390 1390 1390 1390 1390 1389 1388 1388 1387 1386 1385 1384 1383 1382 1382 1381 1380 1380 1379 1378 1378 1377 1376 1376 1375 1375 1374
1376 1376 1377 1378 1379 1380 1382 1383 1384 1384 1385 1386 1386 1386 1387 1387 1387 1387 1387 1388 1388 1387 1387 1386 1385 1385 1384 1383 1382 1381 1380 1379 1378 1378 1377 1376 1375 1374 1374 1373 1372 1372 1371 1371
1375 1375 1376 1377 1378 1379 1380 1381 1382 1383 1383 1384 1384 1385 1385 1385 1385 1385 1385 1385 1385 1385 1384 1384 1383 1382 1381 1380 1379 1378 1377 1377 1376 1375 1374 1373 1372 1371 1371 1370 1369 1368 1368 1367
1374 1375 1375 1376 1377 1377 1379 1379 1380 1381 1382 1382 1382 1383 1383 1383 1383 1383 1383 1383 1383 1382 1382 1381 1381 1380 1379 1378 1377 1376 1375 1374 1373 1372 1371 1370 1369 1369 1368 1367 1366 1365 1365 1364
1374 1374 1375 1376 1376 1377 1377 1378 1378 1379 1380 1380 1380 1381 1381 1381 1381 1381 1381 1381 1381 1381 1380 1379 1378 1378 1377 1376 1375 1374 1373 1372 1371 1370 1369 1368 1367 1366 1365 1364 1363 1362 1362 1361
1373 1374 1374 1375 1375 1376 1376 1377 1377 1378 1378 1379 1379 1379 1379 1379 1379 1379 1379 1379 1379 1379 1378 1377 1377 1376 1375 1374 1373 1372 1371 1369 1368 1367 1366 1365 1364 1363 1362 1361 1360 1359 1358 1358